{"data":{"norad_id":65383,"intl_designator":"2025-191E","name":"STARLINK-35054","alt_names":[],"object_type":"PAYLOAD","status":"ACTIVE","operator":null,"country":"US","launch_date":"2025-08-30","launch_site_code":"AFWTR","launch_vehicle":null,"mission":null,"orbit_class":"UNKNOWN","rcs_meters":null,"size_class":null,"mass_kg":null,"dimensions":null,"purposes":["comms"],"wikipedia_slug":null,"has_3d_model":false,"image_url":null,"decayed_at":null,"tle_current":{"epoch":"2026-05-25T02:36:10.043712Z","epoch_age_seconds":59038,"freshness":"FRESH","line1":"1 65383U 25191E   26145.10844958  .00002795  00000+0  19769-3 0  9997","line2":"2 65383  97.4533  16.4045 0002145  75.5384 284.6081 15.05656486 41765","mean_motion":15.05656486,"eccentricity":0.0002145,"inclination_deg":97.4533,"raan_deg":16.4045,"arg_perigee_deg":75.5384,"mean_anomaly_deg":284.6081,"bstar":0.00019769,"rev_number":4176,"period_min":95.63934492293,"perigee_km":548.00528268702,"apogee_km":550.97723521011,"semimajor_km":6927.6282589486,"source":"CELESTRAK","updated_at":"2026-05-25T13:38:20.772455Z"}}}